Shannon, Ireland

8:54 AM IST on May 27, 2017 (GMT +0100)
Shannon

Weather History for EINN - September, 2013

Change the Weather History Date:

Monday, September 30, 2013

  Actual Average Record
Temperature  
Mean Temperature 60 °F -  
Max Temperature 61 °F 58 °F 71 °F (1997)
Min Temperature 58 °F 46 °F 40 °F (2015)
Degree Days  
Heating Degree Days 6    
Growing Degree Days 10 (Base 50)    
Moisture  
Dew Point 58 °F    
Average Humidity 94    
Maximum Humidity 100    
Minimum Humidity 83    
Precipitation  
Precipitation 0.08 in 0.12 in - ()
Sea Level Pressure  
Sea Level Pressure 29.54 in    
Wind  
Wind Speed 13 mph ()    
Max Wind Speed 18 mph    
Max Gust Speed -    
Visibility 5.2 miles    
Events Rain    
Averages and records for this station are not official NWS values.
T = Trace of Precipitation, MM = Missing Value Source: Averaged Metar Reports

Daily Weather History Graph

Daily Weather History Graph

Search for Another Location

Airport or City:

Trip Planner

Search our weather history database for the weather conditions in past years. The results will help you decide how hot, cold, wet, or windy it might be!

Date:

Astronomy

Sep. 30, 2013 Rise Set
Actual Time 7:35 AM IST 7:14 PM IST
Civil Twilight 7:01 AM IST 7:48 PM IST
Nautical Twilight 6:21 AM IST 8:28 PM IST
Astronomical Twilight 5:39 AM IST 9:09 PM IST
Moon 2:28 AM IST (9/30) 5:04 PM IST (9/30)
Length of Visible Light 12h 47m
Length of Day
11h 39m
Waning Crescent, 21% of the Moon is Illuminated
Sep 30
Waning Crescent
Oct 5
New
Oct 12
First Quarter
Oct 19
Full
Oct 27
Last Quarter

Hourly Weather History & Observations

Time (IST) Temp. Dew Point Humidity Pressure Visibility Wind Dir Wind Speed Gust Speed Precip Events Conditions
12:00 AM 59.0 °F 55.4 °F 88% 29.62 in 6.2 mi East 11.5 mph - N/A   Mostly Cloudy
12:30 AM 59.0 °F 55.4 °F 88% 29.59 in 6.2 mi East 13.8 mph - N/A   Overcast
1:00 AM 59 °F 55 °F 83% 29.60 in 7 mi East 13.4 mph - - Rain Light Drizzle
1:00 AM 59.0 °F 55.4 °F 88% 29.59 in 6.2 mi East 12.7 mph - N/A   Light Drizzle
1:30 AM 59.0 °F 57.2 °F 94% 29.59 in 6.2 mi East 13.8 mph - N/A   Mostly Cloudy
2:00 AM 59.0 °F 57.2 °F 94% 29.56 in 6.2 mi East 12.7 mph - N/A   Mostly Cloudy
2:30 AM 59.0 °F 57.2 °F 94% 29.56 in 6.2 mi East 12.7 mph - N/A   Mostly Cloudy
3:00 AM 59.0 °F 57.2 °F 94% 29.56 in 6.2 mi East 16.1 mph - N/A   Mostly Cloudy
3:30 AM 60.8 °F 57.2 °F 88% 29.56 in 6.2 mi East 15.0 mph - N/A   Overcast
4:00 AM 60.8 °F 57.2 °F 88% 29.56 in 6.2 mi East 13.8 mph - N/A   Light Drizzle
4:30 AM 59.0 °F 57.2 °F 94% 29.56 in 6.2 mi East 12.7 mph - N/A   Light Drizzle
5:00 AM 59.0 °F 59.0 °F 100% 29.53 in 6.2 mi East 12.7 mph - N/A   Mostly Cloudy
5:30 AM 59.0 °F 57.2 °F 94% 29.53 in 6.2 mi East 11.5 mph - N/A   Mostly Cloudy
6:00 AM 59.0 °F 59.0 °F 100% 29.53 in 6.2 mi East 12.7 mph - N/A   Light Drizzle
6:30 AM 59.0 °F 59.0 °F 100% 29.53 in 5.6 mi East 11.5 mph - N/A   Light Drizzle
7:00 AM 59 °F 58 °F 97% 29.55 in 4 mi East 13.4 mph - - Rain Light Drizzle
7:00 AM 59.0 °F 59.0 °F 100% 29.53 in 3.7 mi East 13.8 mph - N/A   Light Drizzle
7:30 AM 59.0 °F 59.0 °F 100% 29.56 in 6.2 mi ESE 13.8 mph - N/A   Mostly Cloudy
8:00 AM 60.8 °F 59.0 °F 94% 29.56 in 5.0 mi East 15.0 mph - N/A   Mostly Cloudy
8:30 AM 60.8 °F 59.0 °F 94% 29.56 in 5.6 mi East 12.7 mph - N/A   Mostly Cloudy
9:00 AM 60.8 °F 59.0 °F 94% 29.53 in 5.0 mi East 13.8 mph - N/A   Mostly Cloudy
9:30 AM 60.8 °F 59.0 °F 94% 29.53 in 6.2 mi East 15.0 mph - N/A   Light Drizzle
10:00 AM 60.8 °F 59.0 °F 94% 29.53 in 4.3 mi East 13.8 mph - N/A   Light Drizzle
10:30 AM 60.8 °F 59.0 °F 94% 29.56 in 5.0 mi East 15.0 mph - N/A   Mostly Cloudy
11:00 AM 60.8 °F 59.0 °F 94% 29.56 in 4.3 mi East 15.0 mph - N/A   Light Drizzle
11:30 AM 60.8 °F 59.0 °F 94% 29.53 in 3.7 mi East 12.7 mph - N/A   Light Drizzle
12:00 PM 60.8 °F 59.0 °F 94% 29.53 in 3.7 mi East 13.8 mph - N/A   Light Drizzle
12:30 PM 60.8 °F 59.0 °F 94% 29.53 in 1.9 mi East 17.3 mph - N/A   Light Drizzle
1:00 PM 60 °F 58 °F 93% 29.56 in 2 mi ESE 17.9 mph - - Rain Light Drizzle
1:00 PM 60.8 °F 59.0 °F 94% 29.53 in 2.5 mi ESE 17.3 mph - N/A   Light Drizzle
1:30 PM 60.8 °F 59.0 °F 94% 29.53 in 3.7 mi East 16.1 mph - N/A   Light Drizzle
2:00 PM 60.8 °F 59.0 °F 94% 29.53 in 3.7 mi East 15.0 mph - N/A   Mostly Cloudy
2:30 PM 60.8 °F 59.0 °F 94% 29.53 in 5.6 mi East 16.1 mph - N/A   Mostly Cloudy
3:00 PM 60.8 °F 59.0 °F 94% 29.53 in 1.9 mi East 13.8 mph - N/A   Light Drizzle
3:30 PM 60.8 °F 59.0 °F 94% 29.53 in 1.9 mi East 15.0 mph - N/A   Light Drizzle
4:00 PM 60.8 °F 59.0 °F 94% 29.53 in 3.1 mi East 15.0 mph - N/A Rain Light Rain
4:30 PM 60.8 °F 59.0 °F 94% 29.53 in 5.0 mi East 15.0 mph - N/A   Light Drizzle
5:00 PM 60.8 °F 59.0 °F 94% 29.53 in 5.0 mi East 15.0 mph - N/A Rain Light Rain
5:30 PM 60.8 °F 59.0 °F 94% 29.50 in 3.1 mi East 15.0 mph - N/A Rain Light Rain
6:00 PM 60.8 °F 59.0 °F 94% 29.50 in 5.0 mi East 15.0 mph - N/A   Overcast
6:30 PM 60.8 °F 59.0 °F 94% 29.53 in 3.7 mi East 13.8 mph - N/A   Light Drizzle
7:00 PM 60 °F 59 °F 94% 29.54 in 9 mi East 11.2 mph - - Rain Light Drizzle
7:00 PM 60.8 °F 59.0 °F 94% 29.53 in 6.2 mi East 11.5 mph - N/A   Mostly Cloudy
7:30 PM 60.8 °F 59.0 °F 94% 29.53 in 6.2 mi East 10.4 mph - N/A Rain Light Rain
8:00 PM 60.8 °F 59.0 °F 94% 29.53 in 6.2 mi East 10.4 mph - N/A   Light Drizzle
8:30 PM 60.8 °F 59.0 °F 94% 29.53 in 6.2 mi ESE 15.0 mph - N/A Rain Light Rain
9:00 PM 60.8 °F 59.0 °F 94% 29.53 in 6.2 mi ESE 13.8 mph - N/A   Light Drizzle
9:30 PM 60.8 °F 57.2 °F 88% 29.53 in 6.2 mi ESE 13.8 mph - N/A Rain Light Rain
10:00 PM 60.8 °F 59.0 °F 94% 29.53 in 6.2 mi East 11.5 mph - N/A   Mostly Cloudy
10:30 PM 60.8 °F 59.0 °F 94% 29.53 in 6.2 mi ESE 13.8 mph - N/A   Mostly Cloudy
11:00 PM 60.8 °F 59.0 °F 94% 29.53 in 6.2 mi East 13.8 mph - N/A   Mostly Cloudy
11:30 PM 60.8 °F 59.0 °F 94% 29.53 in 6.2 mi East 15.0 mph - N/A   Light Drizzle